Vertical_Velocity
-2 -0 1 1 0 2 0 4 1 5 -5 2 -1 0 1 1 2 3 2 -0 0 1 1 1 1 2 0 -0 -1 -1 -2 3 -0 -4 1 -1 5 3 6 2 0 2 4
1 -2 0 -1 0 2 3 3 1 -4 1 1 1 1 2 1 1 2 2 0 0 1 1 1 -1 -1 0 0 -0 -2 -2 2 -1 -8 -6 -15 1 -2 -5 -2 -4 -1 1
-0 0 -0 -0 -1 6 7 1 1 -2 -0 -1 0 -2 -2 -1 -1 -0 0 -2 -1 -0 0 1 1 1 -0 -0 -1 -1 -2 -5 1 -1 -8 -18 -9 -16 1 -2 -3 -4 -3
-2 1 1 0 1 1 5 4 2 1 -2 -3 -3 -3 -2 -2 -1 1 2 2 2 0 -1 -2 -1 -1 -1 -1 -2 -4 -4 -3 -2 -1 3 5 -0 -8 -29 6 -3 -2 -3
0 1 -2 0 1 -2 -1 2 2 -0 -3 -3 -2 0 0 1 -0 -1 -1 -1 -2 -2 -1 -0 -0 0 0 1 0 1 2 2 0 1 -0 -1 2 3 -10 -29 3 3 4
2 0 -1 1 0 0 1 -1 -2 -1 -0 -2 -2 -1 -2 -2 -1 -1 -0 -0 -0 0 0 -0 -1 -1 -2 -2 -1 -2 -3 -3 -2 -2 0 -0 -3 -3 -9 -22 -5 -16 19
2 1 -1 1 2 2 -1 -1 -2 -3 -3 -1 0 -1 -1 -1 -1 -0 -1 -1 0 -0 -1 -2 -3 -3 -2 -1 -1 -1 -1 0 -0 -0 -1 1 3 1 2 0 -9 -20 -4
2 1 1 1 -1 1 0 -3 -2 -1 1 -1 -2 -2 -1 -1 -1 -2 -2 -2 -2 -3 -3 -3 -4 -3 -3 -2 -2 -1 -1 1 1 1 2 -0 2 2 4 2 -2 -20 -14
2 1 1 2 1 1 -1 -2 -3 -1 -1 -1 -2 -1 -1 -1 -1 -2 -1 -2 -3 -4 -5 -5 -2 -2 -2 -1 -1 -2 -3 -3 -3 -2 -1 -2 1 1 2 3 9 8 -28
0 -0 2 0 2 -0 0 -2 -0 1 -0 -1 -1 -1 -0 -1 -1 -2 -2 -1 -2 -2 -1 -1 -2 -1 -1 -2 -3 -3 -1 -2 -1 -2 -1 1 1 2 2 2 5 11 10
3 1 0 -2 1 0 -1 -1 0 1 0 -1 -2 -1 -1 -2 -3 -3 -2 -3 -3 -2 -2 -1 -1 -2 -2 -3 -3 -1 -2 -3 -2 1 -2 1 1 -0 1 4 6 3 15
1 1 0 -1 2 1 -0 0 1 -0 0 -0 0 -1 -2 -2 -4 -2 -3 -1 -0 -1 -0 -2 -2 -3 -3 -3 -4 -4 -2 -4 -3 -4 -3 -2 -3 3 0 -2 4 1 6
0 1 3 1 3 2 1 2 1 1 1 -1 -1 -1 -2 -3 -2 -1 0 1 1 -0 -1 -2 -2 -1 -3 -5 -2 -4 -3 -1 -1 -2 -2 -1 -0 -1 -3 -0 -0 2 4
-0 2 2 1 1 2 2 0 0 1 -0 0 0 1 0 1 0 0 -1 -1 -1 -2 -1 -0 -1 -3 -2 -5 -4 -3 -2 1 1 -1 -2 -1 -1 -4 -4 -3 3 -0 -3
2 2 1 2 2 -0 -0 1 -0 1 1 2 0 -2 -0 -1 -1 -2 0 0 -1 -1 -1 -2 0 -1 -3 -4 -8 -3 -3 -6 -4 3 2 1 1 1 2 -4 -2 2 -1
3 2 3 2 -2 -0 0 1 2 1 2 -2 -5 -0 -0 1 0 -0 -1 1 0 -2 -1 0 -2 -2 -2 -4 -0 -4 -6 -0 -2 -9 -3 3 2 4 3 2 3 6 -3
2 2 -0 -1 -0 1 2 1 2 1 -4 -3 0 -1 1 1 -1 -1 0 -3 -1 -1 -1 -1 -3 2 -1 -1 -2 -4 -5 -4 -2 -1 -6 -4 3 -1 -7 1 1 -1 7
1 -0 1 1 0 1 1 2 -0 -1 -2 1 -1 -1 0 -2 -0 -1 -2 -1 -1 -3 -4 -0 -1 -3 -0 -5 -4 -5 -2 -1 0 0 -2 -5 -1 3 -7 -4 -5 -3 0
-1 -1 0 -1 -1 2 -1 -1 -1 -1 1 1 -1 -1 -1 -0 -1 -1 -1 -3 -4 -2 -1 -2 -3 -11 -1 -2 -2 -6 -5 -0 1 -0 2 -4 -1 -0 0 -6 -10 -5 1
-2 -1 -3 -1 1 -1 -0 0 -0 0 -0 -0 -0 -0 -1 -1 -1 -2 -2 -3 -3 -3 -5 1 -4 0 -7 0 -1 -3 -6 -6 -5 8 -2 4 -1 1 2 0 -4 -9 -2
-3 -2 -1 -1 -0 -0 -0 -1 0 -1 -0 0 -0 -1 -2 -0 -2 -1 -3 -6 -4 -4 -4 -2 1 1 -4 -2 -2 -1 -3 -7 -10 -5 -4 -1 2 4 3 4 2 -1 -6
-2 -1 0 1 1 1 0 -1 -2 1 1 0 -1 -1 -0 -2 -3 -4 -4 -3 -6 -3 -5 -7 1 4 -1 -2 -2 -4 -0 2 -3 -6 -3 -1 -0 1 1 1 1 -0 -1
0 1 1 -0 -0 -1 -1 0 2 1 -0 -1 -1 0 2 0 -3 -4 -3 -4 -4 -7 -3 -8 -7 -2 -3 -3 -2 -1 0 -0 -4 -2 -2 1 -3 -2 1 4 1 0 1
-0 -1 -1 -2 -3 -1 1 2 0 -0 -0 -0 -0 2 0 -4 -3 -1 -4 -3 -3 -3 -5 -6 -6 -5 -5 -5 -4 -6 -5 1 -1 -6 -1 -2 0 3 0 2 5 3 2
-1 -2 -2 0 1 1 -1 -2 0 0 -1 0 -1 -2 -2 -3 -2 1 -3 -4 3 -7 -10 -4 -7 -12 -6 -5 -2 -1 -3 1 3 -5 -1 -3 -1 -1 0 5 2 3 1
-1 1 2 1 -0 -1 -1 -1 -2 -2 -3 -0 0 -2 -5 -3 -3 -6 1 10 3 4 2 -1 -4 1 -2 -1 -1 -2 -2 0 -3 -4 -5 -2 -1 -1 -1 -2 -3 3 1
Height
3115 3116 3117 3117 3117 3116 3115 3114 3114 3114 3114 3113 3113 3112 3112 3111 3109 3108 3106 3104 3101 3099 3096 3093 3090 3087 3083 3079 3075 3071 3067 3065 3058 3051 3047 3044 3043 3041 3039 3036 3033 3031 3029
3110 3111 3112 3112 3113 3112 3112 3112 3111 3111 3111 3111 3110 3110 3109 3107 3105 3103 3100 3098 3096 3093 3090 3087 3083 3080 3076 3072 3068 3062 3058 3055 3051 3042 3035 3027 3028 3027 3023 3020 3018 3016 3014
3106 3107 3107 3109 3110 3111 3110 3109 3109 3109 3108 3108 3107 3106 3104 3102 3100 3097 3095 3092 3089 3086 3083 3080 3076 3072 3068 3064 3060 3055 3048 3043 3043 3037 3029 3018 3012 3006 3009 3006 3003 3001 2998
3101 3102 3104 3106 3108 3109 3108 3107 3106 3106 3105 3105 3103 3101 3099 3097 3095 3093 3090 3087 3084 3081 3078 3074 3070 3066 3061 3056 3052 3047 3041 3034 3028 3026 3025 3018 3007 2994 2981 2988 2986 2985 2982
3098 3100 3102 3104 3106 3107 3107 3105 3104 3103 3102 3101 3099 3097 3094 3092 3090 3087 3084 3081 3078 3075 3071 3067 3063 3058 3053 3048 3042 3037 3032 3025 3018 3011 3005 3002 2998 2993 2984 2966 2968 2968 2965
3095 3097 3100 3102 3104 3104 3103 3102 3101 3099 3098 3096 3094 3092 3090 3088 3085 3083 3081 3077 3074 3070 3065 3060 3055 3050 3044 3038 3033 3027 3021 3015 3010 3003 2997 2990 2982 2975 2969 2962 2956 2950 2947
3093 3095 3097 3100 3101 3100 3099 3098 3098 3096 3094 3092 3090 3088 3086 3084 3081 3078 3074 3071 3066 3062 3057 3051 3045 3039 3033 3026 3020 3015 3010 3004 2998 2992 2986 2980 2973 2965 2957 2949 2940 2932 2930
3091 3093 3095 3097 3098 3097 3096 3095 3094 3092 3089 3087 3085 3083 3080 3077 3074 3070 3065 3061 3056 3051 3045 3040 3033 3028 3022 3016 3010 3004 2998 2992 2986 2981 2975 2968 2961 2954 2947 2939 2928 2917 2914
3088 3091 3093 3094 3094 3094 3093 3091 3089 3087 3085 3083 3080 3077 3074 3070 3066 3061 3056 3052 3046 3042 3036 3028 3023 3018 3012 3005 3000 2994 2989 2983 2977 2971 2964 2958 2951 2943 2936 2928 2919 2907 2895
3085 3088 3089 3090 3091 3090 3089 3087 3085 3083 3080 3077 3074 3071 3067 3062 3058 3053 3048 3044 3038 3031 3024 3018 3013 3008 3002 2996 2990 2985 2979 2972 2966 2958 2951 2944 2937 2930 2922 2913 2906 2898 2886
3083 3085 3086 3087 3087 3086 3085 3083 3080 3078 3075 3071 3068 3064 3060 3055 3049 3045 3040 3034 3027 3021 3015 3010 3004 2998 2993 2987 2980 2975 2968 2960 2952 2945 2937 2930 2922 2914 2906 2898 2890 2882 2873
3080 3081 3082 3082 3083 3081 3080 3078 3075 3072 3069 3065 3061 3056 3051 3046 3040 3036 3030 3024 3019 3012 3005 3000 2994 2989 2983 2976 2969 2962 2954 2945 2937 2929 2920 2912 2904 2897 2889 2882 2874 2864 2858
3077 3078 3078 3078 3078 3076 3074 3072 3070 3066 3063 3059 3054 3049 3044 3038 3032 3027 3021 3015 3009 3003 2998 2992 2986 2979 2972 2965 2958 2950 2941 2931 2922 2913 2906 2897 2888 2881 2873 2866 2858 2851 2843
3074 3073 3073 3073 3073 3071 3069 3067 3064 3060 3056 3052 3047 3042 3036 3030 3025 3018 3012 3006 3001 2995 2990 2983 2976 2969 2962 2954 2945 2936 2926 2917 2909 2902 2893 2884 2876 2867 2859 2852 2844 2836 2828
3069 3069 3069 3068 3067 3066 3063 3060 3057 3053 3050 3045 3039 3033 3028 3022 3015 3010 3004 2998 2993 2987 2980 2973 2967 2959 2950 2941 2931 2921 2913 2905 2897 2890 2880 2871 2863 2855 2847 2838 2831 2824 2816
3064 3064 3063 3062 3061 3059 3056 3053 3050 3047 3042 3036 3030 3024 3019 3012 3006 3001 2996 2991 2985 2979 2972 2965 2956 2947 2939 2929 2920 2911 2901 2893 2884 2874 2867 2858 2850 2843 2836 2829 2822 2815 2806
3059 3058 3057 3056 3054 3051 3049 3046 3043 3039 3033 3026 3020 3015 3010 3004 2999 2994 2989 2982 2976 2970 2963 2954 2945 2936 2927 2918 2908 2898 2888 2879 2871 2862 2853 2846 2838 2830 2822 2816 2808 2802 2798
3053 3053 3051 3049 3046 3044 3041 3039 3035 3029 3023 3019 3012 3007 3002 2997 2992 2986 2979 2973 2968 2960 2951 2943 2934 2926 2915 2905 2895 2886 2877 2868 2860 2852 2843 2836 2828 2820 2812 2804 2796 2792 2787
3047 3046 3043 3041 3039 3037 3034 3030 3025 3021 3017 3010 3004 2999 2994 2989 2983 2977 2971 2964 2957 2951 2943 2932 2923 2913 2905 2894 2884 2874 2866 2859 2850 2842 2835 2828 2820 2812 2805 2796 2787 2780 2774
3040 3038 3037 3035 3032 3028 3025 3021 3017 3013 3008 3003 2998 2992 2986 2980 2974 2968 2961 2955 2948 2941 2933 2923 2912 2902 2894 2886 2876 2866 2856 2849 2840 2832 2826 2819 2811 2803 2795 2786 2776 2767 2761
3034 3032 3029 3026 3023 3020 3017 3013 3009 3004 3000 2995 2989 2984 2978 2972 2966 2961 2954 2946 2939 2931 2923 2913 2902 2893 2885 2877 2868 2858 2848 2838 2830 2822 2815 2809 2801 2794 2786 2777 2768 2759 2751
3025 3023 3020 3018 3016 3013 3009 3005 3001 2997 2992 2987 2982 2977 2971 2965 2959 2952 2945 2937 2928 2920 2911 2903 2894 2885 2877 2867 2858 2850 2841 2833 2823 2815 2806 2799 2792 2784 2776 2768 2761 2753 2744
3017 3015 3014 3011 3008 3005 3001 2997 2993 2988 2984 2980 2975 2969 2964 2958 2951 2943 2935 2927 2919 2910 2901 2893 2883 2875 2866 2857 2849 2841 2833 2825 2815 2807 2798 2791 2782 2775 2768 2761 2753 2746 2738
3011 3010 3007 3004 3000 2997 2993 2989 2985 2981 2977 2973 2968 2963 2957 2950 2942 2934 2926 2918 2909 2901 2892 2882 2872 2862 2855 2848 2840 2831 2822 2814 2806 2797 2790 2782 2774 2767 2760 2753 2747 2739 2731
3005 3002 2999 2996 2992 2988 2984 2981 2978 2974 2970 2966 2960 2954 2947 2940 2932 2925 2917 2908 2901 2891 2882 2873 2862 2852 2845 2839 2832 2824 2815 2806 2798 2788 2781 2773 2765 2759 2753 2747 2740 2733 2725
2997 2994 2991 2987 2985 2982 2978 2974 2970 2966 2962 2957 2951 2944 2936 2930 2922 2915 2909 2902 2893 2885 2876 2867 2857 2848 2840 2832 2825 2817 2809 2801 2792 2782 2773 2766 2759 2752 2746 2739 2733 2727 2718